Time,TemperatureF,DewpointF,PressureIn,WindDirection,WindDirectionDegrees,WindSpeedMPH,WindSpeedGustMPH,Humidity,HourlyPrecipIn,Conditions,Clouds,dailyrainin,SoftwareType,DateUTC
2013-03-05 00:00:00,26.7,19.9,30.06,NW,316,0.0,0.0,75,0.00,,SKC,0.00,VWS V13.01,2013-03-05 05:00:00,
2013-03-05 00:01:00,26.7,19.9,30.06,NW,316,0.0,0.0,75,0.00,,SKC,0.00,VWS V13.01,2013-03-05 05:01:00,
2013-03-05 00:06:00,26.6,19.8,30.06,NW,316,0.0,0.0,75,0.00,,SKC,0.00,VWS V13.01,2013-03-05 05:06:00,
2013-03-05 00:11:00,26.4,19.6,30.06,NW,316,0.0,0.0,75,0.00,,SKC,0.00,VWS V13.01,2013-03-05 05:11:00,
2013-03-05 00:16:00,26.4,19.6,30.06,NW,316,0.0,0.0,75,0.00,,SKC,0.00,VWS V13.01,2013-03-05 05:16:00,
2013-03-05 00:21:00,26.4,19.9,30.06,NW,316,0.0,0.0,76,0.00,,SKC,0.00,VWS V13.01,2013-03-05 05:21:00,
2013-03-05 00:26:00,26.4,19.9,30.06,NW,316,0.0,0.0,76,0.00,,SKC,0.00,VWS V13.01,2013-03-05 05:26:00,
2013-03-05 00:31:00,26.4,19.9,30.06,NW,316,0.0,0.0,76,0.00,,SKC,0.00,VWS V13.01,2013-03-05 05:31:00,
2013-03-05 00:36:00,26.4,19.9,30.07,NW,316,0.0,0.0,76,0.00,,SKC,0.00,VWS V13.01,2013-03-05 05:36:00,
2013-03-05 00:41:00,26.4,19.9,30.07,NW,316,0.0,0.0,76,0.00,,SKC,0.00,VWS V13.01,2013-03-05 05:41:00,
2013-03-05 00:46:00,26.4,19.9,30.07,NW,316,0.0,0.0,76,0.00,,SKC,0.00,VWS V13.01,2013-03-05 05:46:00,
2013-03-05 00:51:00,26.4,19.9,30.07,NW,316,0.0,0.0,76,0.00,,SKC,0.00,VWS V13.01,2013-03-05 05:51:00,
2013-03-05 00:56:00,26.4,19.9,30.07,NW,316,0.0,0.0,76,0.00,,SKC,0.00,VWS V13.01,2013-03-05 05:56:00,
2013-03-05 01:01:00,26.4,19.9,30.07,NW,316,0.0,0.0,76,0.00,,SKC,0.00,VWS V13.01,2013-03-05 06:01:00,
2013-03-05 01:06:00,26.2,20.0,30.07,NW,316,0.0,0.0,77,0.00,,SKC,0.00,VWS V13.01,2013-03-05 06:06:00,
2013-03-05 01:11:00,26.2,20.0,30.07,NW,316,0.0,0.0,77,0.00,,SKC,0.00,VWS V13.01,2013-03-05 06:11:00,
2013-03-05 01:16:00,26.2,20.0,30.07,NW,316,0.0,0.0,77,0.00,,SKC,0.00,VWS V13.01,2013-03-05 06:16:00,
2013-03-05 01:21:00,26.4,20.2,30.08,NW,316,0.0,0.0,77,0.00,,SKC,0.00,VWS V13.01,2013-03-05 06:21:00,
2013-03-05 01:26:00,26.4,20.2,30.08,NW,316,0.0,0.0,77,0.00,,SKC,0.00,VWS V13.01,2013-03-05 06:26:00,
2013-03-05 01:31:00,26.4,20.2,30.08,NW,316,0.0,0.0,77,0.00,,SKC,0.00,VWS V13.01,2013-03-05 06:31:00,
2013-03-05 01:36:00,26.4,20.2,30.08,NW,316,0.0,0.0,77,0.00,,SKC,0.00,VWS V13.01,2013-03-05 06:36:00,
2013-03-05 01:41:00,26.4,20.2,30.08,NW,316,0.0,0.0,77,0.00,,SKC,0.00,VWS V13.01,2013-03-05 06:41:00,
2013-03-05 01:46:00,26.4,20.2,30.08,NW,316,0.0,0.0,77,0.00,,SKC,0.00,VWS V13.01,2013-03-05 06:46:00,
2013-03-05 01:51:00,26.4,20.2,30.08,NW,316,0.0,0.0,77,0.00,,SKC,0.00,VWS V13.01,2013-03-05 06:51:00,
2013-03-05 01:56:00,26.2,20.0,30.09,NW,316,0.0,0.0,77,0.00,,SKC,0.00,VWS V13.01,2013-03-05 06:56:00,
2013-03-05 02:01:00,26.2,20.0,30.08,NW,316,0.0,0.0,77,0.00,,SKC,0.00,VWS V13.01,2013-03-05 07:01:00,
2013-03-05 02:06:00,26.2,20.0,30.09,NW,316,0.0,0.0,77,0.00,,SKC,0.00,VWS V13.01,2013-03-05 07:06:00,
2013-03-05 02:11:00,26.2,20.3,30.09,NW,316,0.0,0.0,78,0.00,,SKC,0.00,VWS V13.01,2013-03-05 07:11:00,
2013-03-05 02:16:00,26.2,20.3,30.09,NW,316,0.0,0.0,78,0.00,,SKC,0.00,VWS V13.01,2013-03-05 07:16:00,
2013-03-05 02:21:00,26.2,20.3,30.09,NW,316,0.0,0.0,78,0.00,,SKC,0.00,VWS V13.01,2013-03-05 07:21:00,
2013-03-05 02:26:00,26.2,20.3,30.09,NW,316,0.0,0.0,78,0.00,,SKC,0.00,VWS V13.01,2013-03-05 07:26:00,
2013-03-05 02:31:00,26.2,20.3,30.09,NW,316,0.0,0.0,78,0.00,,SKC,0.00,VWS V13.01,2013-03-05 07:31:00,
2013-03-05 02:36:00,26.2,20.3,30.09,NW,316,0.0,0.0,78,0.00,,SKC,0.00,VWS V13.01,2013-03-05 07:36:00,
2013-03-05 02:41:00,26.2,20.3,30.09,NW,316,0.0,0.0,78,0.00,,SKC,0.00,VWS V13.01,2013-03-05 07:41:00,
2013-03-05 02:46:00,26.2,20.3,30.09,NW,316,0.0,0.0,78,0.00,,SKC,0.00,VWS V13.01,2013-03-05 07:46:00,
2013-03-05 02:51:00,26.2,20.3,30.10,NW,316,0.0,0.0,78,0.00,,SKC,0.00,VWS V13.01,2013-03-05 07:51:00,
2013-03-05 02:56:00,26.2,20.3,30.10,NW,316,0.0,0.0,78,0.00,,SKC,0.00,VWS V13.01,2013-03-05 07:56:00,
2013-03-05 03:01:00,26.4,20.5,30.10,NW,316,0.0,0.0,78,0.00,,SKC,0.00,VWS V13.01,2013-03-05 08:01:00,
2013-03-05 03:06:00,26.4,20.5,30.10,NW,316,0.0,0.0,78,0.00,,SKC,0.00,VWS V13.01,2013-03-05 08:06:00,
2013-03-05 03:11:00,26.4,20.8,30.10,NW,316,0.0,0.0,79,0.00,,SKC,0.00,VWS V13.01,2013-03-05 08:11:00,
2013-03-05 03:16:00,26.2,20.6,30.10,NW,316,0.0,0.0,79,0.00,,SKC,0.00,VWS V13.01,2013-03-05 08:16:00,
2013-03-05 03:21:00,26.2,20.6,30.11,NW,316,0.0,0.0,79,0.00,,SKC,0.00,VWS V13.01,2013-03-05 08:21:00,
2013-03-05 03:26:00,26.4,20.8,30.11,NW,316,0.0,0.0,79,0.00,,SKC,0.00,VWS V13.01,2013-03-05 08:26:00,
2013-03-05 03:31:00,26.4,20.8,30.11,NW,316,0.0,0.0,79,0.00,,SKC,0.00,VWS V13.01,2013-03-05 08:31:00,
2013-03-05 03:36:00,26.2,20.6,30.11,NW,316,0.0,0.0,79,0.00,,SKC,0.00,VWS V13.01,2013-03-05 08:36:00,
2013-03-05 03:41:00,26.4,20.8,30.11,NW,316,0.0,0.0,79,0.00,,SKC,0.00,VWS V13.01,2013-03-05 08:41:00,
2013-03-05 03:46:00,26.4,20.8,30.11,NW,316,0.0,0.0,79,0.00,,SKC,0.00,VWS V13.01,2013-03-05 08:46:00,
2013-03-05 03:51:00,26.4,20.8,30.12,NW,316,0.0,0.0,79,0.00,,SKC,0.00,VWS V13.01,2013-03-05 08:51:00,
2013-03-05 03:56:00,26.6,21.0,30.12,NW,316,0.0,0.0,79,0.00,,SKC,0.00,VWS V13.01,2013-03-05 08:56:00,
2013-03-05 04:01:00,26.6,21.0,30.12,NW,316,0.0,0.0,79,0.00,,SKC,0.00,VWS V13.01,2013-03-05 09:01:00,
2013-03-05 04:06:00,26.6,21.0,30.12,NW,316,0.0,0.0,79,0.00,,SKC,0.00,VWS V13.01,2013-03-05 09:06:00,
2013-03-05 04:11:00,26.7,21.1,30.13,NW,316,0.0,0.0,79,0.00,,SKC,0.00,VWS V13.01,2013-03-05 09:11:00,
2013-03-05 04:16:00,26.6,21.0,30.12,NW,316,0.0,0.0,79,0.00,,SKC,0.00,VWS V13.01,2013-03-05 09:16:00,
2013-03-05 04:21:00,26.7,21.1,30.13,NW,316,0.0,0.0,79,0.00,,SKC,0.00,VWS V13.01,2013-03-05 09:21:00,
2013-03-05 04:26:00,26.7,21.1,30.13,NW,316,0.0,0.0,79,0.00,,SKC,0.00,VWS V13.01,2013-03-05 09:26:00,
2013-03-05 04:31:00,26.6,21.0,30.13,NW,316,0.0,0.0,79,0.00,,SKC,0.00,VWS V13.01,2013-03-05 09:31:00,
2013-03-05 04:36:00,26.6,21.0,30.14,NW,316,0.0,0.0,79,0.00,,SKC,0.00,VWS V13.01,2013-03-05 09:36:00,
2013-03-05 04:41:00,26.6,21.0,30.14,NW,316,0.0,0.0,79,0.00,,SKC,0.00,VWS V13.01,2013-03-05 09:41:00,
2013-03-05 04:46:00,26.6,21.0,30.14,NW,316,0.0,0.0,79,0.00,,SKC,0.00,VWS V13.01,2013-03-05 09:46:00,
2013-03-05 04:51:00,26.4,20.8,30.14,NW,316,0.0,0.0,79,0.00,,SKC,0.00,VWS V13.01,2013-03-05 09:51:00,
2013-03-05 04:56:00,26.6,21.0,30.14,NW,316,0.0,0.0,79,0.00,,SKC,0.00,VWS V13.01,2013-03-05 09:56:00,
2013-03-05 05:01:00,26.6,21.0,30.14,NW,316,0.0,0.0,79,0.00,,SKC,0.00,VWS V13.01,2013-03-05 10:01:00,
2013-03-05 05:06:00,26.7,21.1,30.15,NW,316,0.0,0.0,79,0.00,,SKC,0.00,VWS V13.01,2013-03-05 10:06:00,
2013-03-05 05:11:00,26.7,21.1,30.15,NW,316,0.0,0.0,79,0.00,,SKC,0.00,VWS V13.01,2013-03-05 10:11:00,
2013-03-05 05:16:00,26.7,21.1,30.15,NW,316,0.0,0.0,79,0.00,,SKC,0.00,VWS V13.01,2013-03-05 10:16:00,
2013-03-05 05:21:00,26.7,21.1,30.15,NW,316,0.0,0.0,79,0.00,,SKC,0.00,VWS V13.01,2013-03-05 10:21:00,
2013-03-05 05:26:00,26.7,21.1,30.15,NW,316,0.0,0.0,79,0.00,,SKC,0.00,VWS V13.01,2013-03-05 10:26:00,
2013-03-05 05:31:00,26.7,21.1,30.15,NW,316,0.0,0.0,79,0.00,,SKC,0.00,VWS V13.01,2013-03-05 10:31:00,
2013-03-05 05:36:00,26.6,21.3,30.16,NW,316,0.0,0.0,80,0.00,,SKC,0.00,VWS V13.01,2013-03-05 10:36:00,
2013-03-05 05:41:00,26.6,21.3,30.16,NW,316,0.0,0.0,80,0.00,,SKC,0.00,VWS V13.01,2013-03-05 10:41:00,
2013-03-05 05:46:00,26.6,21.3,30.16,NW,316,0.0,0.0,80,0.00,,SKC,0.00,VWS V13.01,2013-03-05 10:46:00,
2013-03-05 05:51:00,26.4,21.1,30.16,NW,316,0.0,0.0,80,0.00,,SKC,0.00,VWS V13.01,2013-03-05 10:51:00,
2013-03-05 05:56:00,26.4,21.1,30.16,NW,316,0.0,0.0,80,0.00,,SKC,0.00,VWS V13.01,2013-03-05 10:56:00,
2013-03-05 06:01:00,26.4,21.1,30.16,NW,316,0.0,0.0,80,0.00,,SKC,0.00,VWS V13.01,2013-03-05 11:01:00,
2013-03-05 06:06:00,26.4,21.1,30.16,NW,316,0.0,0.0,80,0.00,,SKC,0.00,VWS V13.01,2013-03-05 11:06:00,
2013-03-05 06:11:00,26.4,21.1,30.17,NW,316,0.0,0.0,80,0.00,,SKC,0.00,VWS V13.01,2013-03-05 11:11:00,
2013-03-05 06:16:00,26.4,21.1,30.17,NW,316,0.0,0.0,80,0.00,,SKC,0.00,VWS V13.01,2013-03-05 11:16:00,
2013-03-05 06:21:00,26.4,21.1,30.18,NW,316,0.0,0.0,80,0.00,,SKC,0.00,VWS V13.01,2013-03-05 11:21:00,
2013-03-05 06:26:00,26.4,21.1,30.18,NW,316,0.0,0.0,80,0.00,,SKC,0.00,VWS V13.01,2013-03-05 11:26:00,
2013-03-05 06:31:00,26.4,21.1,30.18,NW,316,0.0,0.0,80,0.00,,SKC,0.00,VWS V13.01,2013-03-05 11:31:00,
2013-03-05 06:36:00,26.4,21.1,30.18,NW,316,0.0,0.0,80,0.00,,SKC,0.00,VWS V13.01,2013-03-05 11:36:00,
2013-03-05 06:41:00,26.4,21.1,30.18,NW,316,0.0,0.0,80,0.00,,SKC,0.00,VWS V13.01,2013-03-05 11:41:00,
2013-03-05 06:46:00,26.6,21.3,30.18,NW,316,0.0,0.0,80,0.00,,SKC,0.00,VWS V13.01,2013-03-05 11:46:00,
2013-03-05 06:51:00,26.7,21.4,30.19,NW,316,0.0,0.0,80,0.00,,SKC,0.00,VWS V13.01,2013-03-05 11:51:00,
2013-03-05 06:56:00,26.7,21.1,30.19,NW,316,0.0,0.0,79,0.00,,SKC,0.00,VWS V13.01,2013-03-05 11:56:00,
2013-03-05 07:01:00,26.7,21.1,30.19,NW,316,0.0,0.0,79,0.00,,SKC,0.00,VWS V13.01,2013-03-05 12:01:00,
2013-03-05 07:06:00,27.1,21.5,30.19,NW,316,0.0,0.0,79,0.00,,SKC,0.00,VWS V13.01,2013-03-05 12:06:00,
2013-03-05 07:11:00,27.1,21.5,30.20,NW,316,0.0,0.0,79,0.00,,SKC,0.00,VWS V13.01,2013-03-05 12:11:00,
2013-03-05 07:16:00,27.1,21.5,30.20,NW,316,0.0,0.0,79,0.00,,SKC,0.00,VWS V13.01,2013-03-05 12:16:00,
2013-03-05 07:21:00,27.1,21.5,30.20,NW,316,0.0,0.0,79,0.00,,SKC,0.00,VWS V13.01,2013-03-05 12:21:00,
2013-03-05 07:26:00,27.3,21.7,30.20,NW,316,0.0,0.0,79,0.00,,SKC,0.00,VWS V13.01,2013-03-05 12:26:00,
2013-03-05 07:31:00,27.5,21.9,30.20,NW,316,0.0,0.0,79,0.00,,SKC,0.00,VWS V13.01,2013-03-05 12:31:00,
2013-03-05 07:36:00,27.6,22.0,30.20,NW,316,0.0,0.0,79,0.00,,SKC,0.00,VWS V13.01,2013-03-05 12:36:00,
2013-03-05 07:41:00,27.6,21.6,30.20,NW,316,0.0,0.0,78,0.00,,SKC,0.00,VWS V13.01,2013-03-05 12:41:00,
2013-03-05 07:46:00,28.0,22.0,30.20,NW,316,0.0,0.0,78,0.00,,SKC,0.00,VWS V13.01,2013-03-05 12:46:00,
2013-03-05 07:51:00,28.2,22.2,30.20,NW,316,0.0,0.0,78,0.00,,SKC,0.00,VWS V13.01,2013-03-05 12:51:00,
2013-03-05 07:56:00,28.2,21.9,30.20,NW,316,0.0,0.0,77,0.00,,SKC,0.00,VWS V13.01,2013-03-05 12:56:00,
2013-03-05 08:01:00,28.5,22.2,30.21,NW,316,0.0,0.0,77,0.00,,SKC,0.00,VWS V13.01,2013-03-05 13:01:00,
2013-03-05 08:06:00,28.9,22.6,30.21,NW,316,0.0,0.0,77,0.00,,SKC,0.00,VWS V13.01,2013-03-05 13:06:00,
2013-03-05 08:11:00,29.1,22.8,30.21,NW,316,0.0,0.0,77,0.00,,SKC,0.00,VWS V13.01,2013-03-05 13:11:00,
2013-03-05 08:16:00,29.4,22.8,30.21,NW,316,0.0,0.0,76,0.00,,SKC,0.00,VWS V13.01,2013-03-05 13:16:00,
2013-03-05 08:21:00,29.4,22.5,30.21,West,271,0.0,0.0,75,0.00,,SKC,0.00,VWS V13.01,2013-03-05 13:21:00,
2013-03-05 08:26:00,29.4,22.5,30.21,West,271,0.0,0.0,75,0.00,,SKC,0.00,VWS V13.01,2013-03-05 13:26:00,
2013-03-05 08:31:00,29.6,22.7,30.21,North,1,0.0,0.0,75,0.00,,SKC,0.00,VWS V13.01,2013-03-05 13:31:00,
2013-03-05 08:36:00,29.8,22.5,30.21,NNW,338,1.3,1.3,74,0.00,,SKC,0.00,VWS V13.01,2013-03-05 13:36:00,
2013-03-05 08:41:00,30.0,22.7,30.21,North,1,0.0,0.0,74,0.00,,SKC,0.00,VWS V13.01,2013-03-05 13:41:00,
2013-03-05 08:46:00,30.2,23.2,30.22,NNE,24,0.0,0.0,75,0.00,,SKC,0.00,VWS V13.01,2013-03-05 13:46:00,
2013-03-05 08:51:00,30.3,23.3,30.22,NE,46,0.0,0.0,75,0.00,,SKC,0.00,VWS V13.01,2013-03-05 13:51:00,
2013-03-05 08:56:00,30.5,22.9,30.22,NNW,338,1.1,1.1,73,0.00,,SKC,0.00,VWS V13.01,2013-03-05 13:56:00,
2013-03-05 09:01:00,30.3,22.4,30.22,NW,316,0.0,0.0,72,0.00,,SKC,0.00,VWS V13.01,2013-03-05 14:01:00,
2013-03-05 09:06:00,30.3,22.4,30.22,ENE,68,0.0,0.0,72,0.00,,SKC,0.00,VWS V13.01,2013-03-05 14:06:00,
2013-03-05 09:11:00,30.3,22.4,30.22,NNW,338,4.2,4.2,72,0.00,,SKC,0.00,VWS V13.01,2013-03-05 14:11:00,
2013-03-05 09:16:00,30.5,22.6,30.22,NW,316,0.0,0.0,72,0.00,,SKC,0.00,VWS V13.01,2013-03-05 14:16:00,
2013-03-05 09:21:00,30.7,22.8,30.22,North,1,0.0,0.0,72,0.00,,SKC,0.00,VWS V13.01,2013-03-05 14:21:00,
2013-03-05 09:26:00,30.7,22.4,30.22,NNE,24,0.0,0.0,71,0.00,,SKC,0.00,VWS V13.01,2013-03-05 14:26:00,
2013-03-05 09:31:00,31.1,23.1,30.22,NNE,24,0.0,0.0,72,0.00,,SKC,0.00,VWS V13.01,2013-03-05 14:31:00,
2013-03-05 09:36:00,31.6,23.6,30.22,NNE,24,0.0,0.0,72,0.00,,SKC,0.00,VWS V13.01,2013-03-05 14:36:00,
2013-03-05 09:41:00,31.8,23.5,30.22,NNW,338,0.0,0.0,71,0.00,,SKC,0.00,VWS V13.01,2013-03-05 14:41:00,
2013-03-05 09:46:00,31.8,23.1,30.23,North,1,0.0,0.0,70,0.00,,SKC,0.00,VWS V13.01,2013-03-05 14:46:00,
2013-03-05 09:51:00,31.8,23.1,30.23,NNE,24,0.0,0.0,70,0.00,,SKC,0.00,VWS V13.01,2013-03-05 14:51:00,
2013-03-05 09:56:00,32.0,23.0,30.22,North,1,0.0,0.0,69,0.00,,SKC,0.00,VWS V13.01,2013-03-05 14:56:00,
2013-03-05 10:01:00,31.8,22.8,30.22,NNE,24,0.0,0.0,69,0.00,,SKC,0.00,VWS V13.01,2013-03-05 15:01:00,
2013-03-05 10:06:00,32.1,23.4,30.22,East,91,0.0,0.0,70,0.00,,SKC,0.00,VWS V13.01,2013-03-05 15:06:00,
2013-03-05 10:11:00,32.3,23.3,30.23,NNE,24,0.0,0.0,69,0.00,,SKC,0.00,VWS V13.01,2013-03-05 15:11:00,
2013-03-05 10:16:00,32.3,22.9,30.22,WNW,294,3.1,3.1,68,0.00,,SKC,0.00,VWS V13.01,2013-03-05 15:16:00,
2013-03-05 10:21:00,32.1,22.4,30.22,NE,46,0.0,0.2,67,0.00,,SKC,0.00,VWS V13.01,2013-03-05 15:21:00,
2013-03-05 10:26:00,32.1,22.4,30.22,North,1,0.0,0.0,67,0.00,,SKC,0.00,VWS V13.01,2013-03-05 15:26:00,
2013-03-05 10:31:00,32.1,22.4,30.22,NNW,338,1.3,1.3,67,0.00,,SKC,0.00,VWS V13.01,2013-03-05 15:31:00,
2013-03-05 10:36:00,32.3,22.6,30.22,NW,316,0.0,0.0,67,0.00,,SKC,0.00,VWS V13.01,2013-03-05 15:36:00,
2013-03-05 10:41:00,32.7,23.0,30.22,ENE,68,0.0,0.0,67,0.00,,SKC,0.00,VWS V13.01,2013-03-05 15:41:00,
2013-03-05 10:46:00,33.2,23.8,30.22,ENE,68,0.0,0.0,68,0.00,,SKC,0.00,VWS V13.01,2013-03-05 15:46:00,
2013-03-05 10:51:00,33.4,23.3,30.22,NW,316,0.0,0.0,66,0.00,,SKC,0.00,VWS V13.01,2013-03-05 15:51:00,
2013-03-05 10:56:00,33.4,23.3,30.22,ENE,68,0.0,0.0,66,0.00,,SKC,0.00,VWS V13.01,2013-03-05 15:56:00,
2013-03-05 11:01:00,33.6,23.5,30.21,ENE,68,0.0,0.0,66,0.00,,SKC,0.00,VWS V13.01,2013-03-05 16:01:00,
2013-03-05 11:06:00,33.9,23.4,30.21,NNW,338,0.4,0.4,65,0.00,,SKC,0.00,VWS V13.01,2013-03-05 16:06:00,
2013-03-05 11:11:00,34.1,23.6,30.21,NNW,338,1.7,1.7,65,0.00,,SKC,0.00,VWS V13.01,2013-03-05 16:11:00,
2013-03-05 11:16:00,34.3,23.8,30.22,ENE,68,0.0,0.0,65,0.00,,SKC,0.00,VWS V13.01,2013-03-05 16:16:00,
2013-03-05 11:21:00,34.5,24.0,30.22,NNE,24,0.0,0.0,65,0.00,,SKC,0.00,VWS V13.01,2013-03-05 16:21:00,
2013-03-05 11:26:00,34.7,24.1,30.22,NNW,338,0.0,0.0,65,0.00,,SKC,0.00,VWS V13.01,2013-03-05 16:26:00,
2013-03-05 11:31:00,34.8,23.9,30.22,NNW,338,1.1,1.1,64,0.00,,SKC,0.00,VWS V13.01,2013-03-05 16:31:00,
2013-03-05 11:36:00,34.8,24.2,30.21,ENE,68,0.0,0.0,65,0.00,,SKC,0.00,VWS V13.01,2013-03-05 16:36:00,
2013-03-05 11:41:00,34.8,23.9,30.22,NNW,338,0.2,0.2,64,0.00,,SKC,0.00,VWS V13.01,2013-03-05 16:41:00,
2013-03-05 11:46:00,34.8,23.9,30.22,NW,316,0.2,0.2,64,0.00,,SKC,0.00,VWS V13.01,2013-03-05 16:46:00,
2013-03-05 11:51:00,35.2,24.3,30.22,North,1,2.6,2.6,64,0.00,,SKC,0.00,VWS V13.01,2013-03-05 16:51:00,
2013-03-05 11:56:00,34.8,23.5,30.22,NNW,338,0.8,0.8,63,0.00,,SKC,0.00,VWS V13.01,2013-03-05 16:56:00,
2013-03-05 12:01:00,34.8,23.9,30.22,NNW,338,0.0,0.0,64,0.00,,SKC,0.00,VWS V13.01,2013-03-05 17:01:00,
2013-03-05 12:06:00,35.2,24.3,30.21,ENE,68,0.0,4.0,64,0.00,,SKC,0.00,VWS V13.01,2013-03-05 17:06:00,
2013-03-05 12:11:00,35.2,24.3,30.21,NNE,24,0.0,0.0,64,0.00,,SKC,0.00,VWS V13.01,2013-03-05 17:11:00,
2013-03-05 12:16:00,34.8,23.5,30.22,NW,316,1.1,1.1,63,0.00,,SKC,0.00,VWS V13.01,2013-03-05 17:16:00,
2013-03-05 12:21:00,34.7,23.8,30.22,NNW,338,2.2,2.2,64,0.00,,SKC,0.00,VWS V13.01,2013-03-05 17:21:00,
2013-03-05 12:26:00,34.8,23.9,30.22,ENE,68,0.0,0.0,64,0.00,,SKC,0.00,VWS V13.01,2013-03-05 17:26:00,
2013-03-05 12:31:00,35.2,23.9,30.22,North,1,1.1,1.1,63,0.00,,SKC,0.00,VWS V13.01,2013-03-05 17:31:00,
2013-03-05 12:36:00,34.8,23.5,30.22,NW,316,3.3,8.9,63,0.00,,SKC,0.00,VWS V13.01,2013-03-05 17:36:00,
2013-03-05 12:41:00,34.8,23.5,30.21,North,1,2.9,2.9,63,0.00,,SKC,0.00,VWS V13.01,2013-03-05 17:41:00,
2013-03-05 12:46:00,34.8,23.5,30.22,North,1,3.3,3.5,63,0.00,,SKC,0.00,VWS V13.01,2013-03-05 17:46:00,
2013-03-05 12:51:00,35.2,23.9,30.22,NNW,338,5.8,5.8,63,0.00,,SKC,0.00,VWS V13.01,2013-03-05 17:51:00,
2013-03-05 12:56:00,35.4,24.1,30.22,NNE,24,2.6,2.6,63,0.00,,SKC,0.00,VWS V13.01,2013-03-05 17:56:00,
2013-03-05 13:01:00,35.7,24.7,30.21,NNW,338,5.3,5.3,64,0.00,,SKC,0.00,VWS V13.01,2013-03-05 18:01:00,
2013-03-05 13:06:00,35.4,24.1,30.21,NW,316,0.0,0.0,63,0.00,,SKC,0.00,VWS V13.01,2013-03-05 18:06:00,
2013-03-05 13:11:00,35.2,23.9,30.22,NW,316,1.3,1.3,63,0.00,,SKC,0.00,VWS V13.01,2013-03-05 18:11:00,
2013-03-05 13:16:00,35.2,24.3,30.21,NNW,338,0.0,0.0,64,0.00,,SKC,0.00,VWS V13.01,2013-03-05 18:16:00,
2013-03-05 13:21:00,35.4,24.5,30.22,NW,316,2.2,4.0,64,0.00,,SKC,0.00,VWS V13.01,2013-03-05 18:21:00,
2013-03-05 13:26:00,35.4,24.5,30.21,NNW,338,6.0,6.0,64,0.00,,SKC,0.00,VWS V13.01,2013-03-05 18:26:00,
2013-03-05 13:31:00,35.4,24.5,30.22,NW,316,0.0,0.0,64,0.00,,SKC,0.00,VWS V13.01,2013-03-05 18:31:00,
2013-03-05 13:36:00,35.7,25.1,30.22,NNE,24,0.0,0.0,65,0.00,,SKC,0.00,VWS V13.01,2013-03-05 18:36:00,
2013-03-05 13:41:00,35.7,24.7,30.22,NW,316,3.1,3.1,64,0.00,,SKC,0.00,VWS V13.01,2013-03-05 18:41:00,
2013-03-05 13:46:00,35.7,24.7,30.22,NNW,338,3.5,3.5,64,0.00,,SKC,0.00,VWS V13.01,2013-03-05 18:46:00,
2013-03-05 13:51:00,35.7,24.7,30.22,NW,316,0.6,0.6,64,0.00,,SKC,0.00,VWS V13.01,2013-03-05 18:51:00,
2013-03-05 13:56:00,35.7,24.7,30.22,NNW,338,4.0,4.0,64,0.00,,SKC,0.00,VWS V13.01,2013-03-05 18:56:00,
2013-03-05 14:01:00,35.7,25.1,30.22,NW,316,4.0,4.2,65,0.00,,SKC,0.00,VWS V13.01,2013-03-05 19:01:00,
2013-03-05 14:06:00,35.7,25.1,30.22,NNW,338,0.0,4.0,65,0.00,,SKC,0.00,VWS V13.01,2013-03-05 19:06:00,
2013-03-05 14:11:00,36.1,25.5,30.22,ENE,68,0.2,0.2,65,0.00,,SKC,0.00,VWS V13.01,2013-03-05 19:11:00,
2013-03-05 14:16:00,36.1,25.5,30.23,NNW,338,4.6,5.8,65,0.00,,SKC,0.00,VWS V13.01,2013-03-05 19:16:00,
2013-03-05 14:21:00,35.7,25.1,30.23,NNW,338,1.1,1.1,65,0.00,,SKC,0.00,VWS V13.01,2013-03-05 19:21:00,
2013-03-05 14:26:00,35.2,25.0,30.23,NW,316,1.7,1.7,66,0.00,,SKC,0.00,VWS V13.01,2013-03-05 19:26:00,
2013-03-05 14:31:00,34.8,24.6,30.23,NE,46,0.0,0.0,66,0.00,,SKC,0.00,VWS V13.01,2013-03-05 19:31:00,
2013-03-05 14:36:00,34.8,25.0,30.23,NNE,24,0.0,0.0,67,0.00,,SKC,0.00,VWS V13.01,2013-03-05 19:36:00,
2013-03-05 14:41:00,34.8,25.0,30.23,NNW,338,1.5,1.5,67,0.00,,SKC,0.00,VWS V13.01,2013-03-05 19:41:00,
2013-03-05 14:46:00,34.5,24.3,30.24,NNE,24,0.0,1.7,66,0.00,,SKC,0.00,VWS V13.01,2013-03-05 19:46:00,
2013-03-05 14:51:00,34.5,24.7,30.24,NNW,338,5.3,5.3,67,0.00,,SKC,0.00,VWS V13.01,2013-03-05 19:51:00,
2013-03-05 14:56:00,34.3,24.5,30.24,NW,316,0.0,0.0,67,0.00,,SKC,0.00,VWS V13.01,2013-03-05 19:56:00,
2013-03-05 15:01:00,34.3,24.5,30.24,NNW,338,2.4,2.4,67,0.00,,SKC,0.00,VWS V13.01,2013-03-05 20:01:00,
2013-03-05 15:06:00,34.3,24.9,30.24,NW,316,4.4,4.4,68,0.00,,SKC,0.00,VWS V13.01,2013-03-05 20:06:00,
2013-03-05 15:11:00,34.3,24.9,30.24,NE,46,3.1,3.1,68,0.00,,SKC,0.00,VWS V13.01,2013-03-05 20:11:00,
2013-03-05 15:16:00,34.3,24.9,30.24,NW,316,4.2,4.2,68,0.00,,SKC,0.00,VWS V13.01,2013-03-05 20:16:00,
2013-03-05 15:21:00,34.3,24.9,30.24,NNW,338,3.8,3.8,68,0.00,,SKC,0.00,VWS V13.01,2013-03-05 20:21:00,
2013-03-05 15:26:00,34.3,25.2,30.24,NW,316,7.3,7.3,69,0.00,,SKC,0.00,VWS V13.01,2013-03-05 20:26:00,
2013-03-05 15:31:00,34.1,24.7,30.24,NW,316,0.8,0.8,68,0.00,,SKC,0.00,VWS V13.01,2013-03-05 20:31:00,
2013-03-05 15:36:00,34.1,24.7,30.24,NNE,24,0.0,5.5,68,0.00,,SKC,0.00,VWS V13.01,2013-03-05 20:36:00,
2013-03-05 15:41:00,33.8,24.4,30.24,NW,316,6.7,6.7,68,0.00,,SKC,0.00,VWS V13.01,2013-03-05 20:41:00,
2013-03-05 15:46:00,33.6,24.5,30.24,NNW,338,7.6,7.6,69,0.00,,SKC,0.00,VWS V13.01,2013-03-05 20:46:00,
2013-03-05 15:51:00,33.4,24.3,30.25,NNW,338,5.8,6.2,69,0.00,,SKC,0.00,VWS V13.01,2013-03-05 20:51:00,
2013-03-05 15:56:00,33.4,24.7,30.24,NNW,338,0.0,0.0,70,0.00,,SKC,0.00,VWS V13.01,2013-03-05 20:56:00,
2013-03-05 16:01:00,33.0,24.3,30.24,NW,316,3.3,3.3,70,0.00,,SKC,0.00,VWS V13.01,2013-03-05 21:01:00,
2013-03-05 16:06:00,33.0,24.3,30.25,NNW,338,5.3,5.3,70,0.00,,SKC,0.00,VWS V13.01,2013-03-05 21:06:00,
2013-03-05 16:11:00,32.9,24.2,30.24,NNE,24,0.0,0.0,70,0.00,,SKC,0.00,VWS V13.01,2013-03-05 21:11:00,
2013-03-05 16:16:00,32.7,24.0,30.24,NNW,338,0.0,3.1,70,0.00,,SKC,0.00,VWS V13.01,2013-03-05 21:16:00,
2013-03-05 16:21:00,32.7,24.0,30.25,NNW,338,0.0,0.0,70,0.00,,SKC,0.00,VWS V13.01,2013-03-05 21:21:00,
2013-03-05 16:26:00,32.5,24.5,30.25,NNW,338,0.8,0.8,72,0.00,,SKC,0.00,VWS V13.01,2013-03-05 21:26:00,
2013-03-05 16:31:00,32.3,24.3,30.25,NE,46,0.0,0.0,72,0.00,,SKC,0.00,VWS V13.01,2013-03-05 21:31:00,
2013-03-05 16:36:00,32.1,24.1,30.25,NNW,338,2.4,2.4,72,0.00,,SKC,0.00,VWS V13.01,2013-03-05 21:36:00,
2013-03-05 16:41:00,32.1,24.1,30.25,NNW,338,0.0,0.0,72,0.00,,SKC,0.00,VWS V13.01,2013-03-05 21:41:00,
2013-03-05 16:46:00,32.3,24.3,30.25,ENE,68,0.0,0.0,72,0.00,,SKC,0.00,VWS V13.01,2013-03-05 21:46:00,
2013-03-05 16:51:00,32.3,24.3,30.25,NW,316,4.2,4.2,72,0.00,,SKC,0.00,VWS V13.01,2013-03-05 21:51:00,
2013-03-05 16:56:00,32.1,24.1,30.25,NNW,338,0.0,0.0,72,0.00,,SKC,0.00,VWS V13.01,2013-03-05 21:56:00,
2013-03-05 17:01:00,32.1,24.1,30.26,NNW,338,0.0,0.0,72,0.00,,SKC,0.00,VWS V13.01,2013-03-05 22:01:00,
2013-03-05 17:06:00,32.1,24.1,30.25,NE,46,0.0,0.0,72,0.00,,SKC,0.00,VWS V13.01,2013-03-05 22:06:00,
2013-03-05 17:11:00,32.0,24.0,30.25,NE,46,2.9,2.9,72,0.00,,SKC,0.00,VWS V13.01,2013-03-05 22:11:00,
2013-03-05 17:16:00,31.8,24.1,30.25,NNW,338,0.0,0.0,73,0.00,,SKC,0.00,VWS V13.01,2013-03-05 22:16:00,
2013-03-05 17:21:00,31.8,24.1,30.25,NE,46,0.0,0.0,73,0.00,,SKC,0.00,VWS V13.01,2013-03-05 22:21:00,
2013-03-05 17:26:00,31.8,24.1,30.25,NNE,24,0.0,0.0,73,0.00,,SKC,0.00,VWS V13.01,2013-03-05 22:26:00,
2013-03-05 17:31:00,31.6,24.0,30.25,NNW,338,2.6,2.6,73,0.00,,SKC,0.00,VWS V13.01,2013-03-05 22:31:00,
2013-03-05 17:36:00,31.2,23.6,30.25,NE,46,0.0,0.0,73,0.00,,SKC,0.00,VWS V13.01,2013-03-05 22:36:00,
2013-03-05 17:41:00,31.2,23.6,30.25,ESE,114,0.0,0.0,73,0.00,,SKC,0.00,VWS V13.01,2013-03-05 22:41:00,
2013-03-05 17:46:00,31.2,23.6,30.26,ENE,68,0.0,0.0,73,0.00,,SKC,0.00,VWS V13.01,2013-03-05 22:46:00,
2013-03-05 17:51:00,30.9,23.3,30.26,NNW,338,0.0,0.0,73,0.00,,SKC,0.00,VWS V13.01,2013-03-05 22:51:00,
2013-03-05 17:56:00,30.7,23.4,30.26,WNW,294,1.1,1.1,74,0.00,,SKC,0.00,VWS V13.01,2013-03-05 22:56:00,
2013-03-05 18:01:00,30.5,23.2,30.26,NNW,338,0.0,0.0,74,0.00,,SKC,0.00,VWS V13.01,2013-03-05 23:01:00,
2013-03-05 18:07:00,30.3,23.0,30.26,NE,46,0.0,0.0,74,0.00,,SKC,0.00,VWS V13.01,2013-03-05 23:07:00,
2013-03-05 18:12:00,30.3,23.0,30.26,North,1,0.0,0.0,74,0.00,,SKC,0.00,VWS V13.01,2013-03-05 23:12:00,
2013-03-05 18:17:00,30.2,23.2,30.25,NE,46,0.0,0.0,75,0.00,,SKC,0.00,VWS V13.01,2013-03-05 23:17:00,
2013-03-05 18:22:00,30.0,22.7,30.26,NE,46,0.0,0.0,74,0.00,,SKC,0.00,VWS V13.01,2013-03-05 23:22:00,
2013-03-05 18:27:00,30.0,22.7,30.26,NE,46,0.0,0.0,74,0.00,,SKC,0.00,VWS V13.01,2013-03-05 23:27:00,
2013-03-05 18:32:00,29.6,22.4,30.26,NE,46,0.0,0.0,74,0.00,,SKC,0.00,VWS V13.01,2013-03-05 23:32:00,
2013-03-05 18:37:00,29.4,22.5,30.26,North,1,0.0,0.0,75,0.00,,SKC,0.00,VWS V13.01,2013-03-05 23:37:00,
2013-03-05 18:42:00,29.4,22.5,30.26,ENE,68,0.0,0.0,75,0.00,,SKC,0.00,VWS V13.01,2013-03-05 23:42:00,
2013-03-05 18:47:00,29.4,22.8,30.26,North,1,0.0,0.0,76,0.00,,SKC,0.00,VWS V13.01,2013-03-05 23:47:00,
2013-03-05 18:52:00,29.4,22.8,30.26,NNW,338,0.0,0.0,76,0.00,,SKC,0.00,VWS V13.01,2013-03-05 23:52:00,
2013-03-05 18:57:00,29.4,22.8,30.26,NW,316,0.0,0.0,76,0.00,,SKC,0.00,VWS V13.01,2013-03-05 23:57:00,
2013-03-05 19:02:00,29.3,22.7,30.27,NNW,338,0.0,0.0,76,0.00,,SKC,0.00,VWS V13.01,2013-03-06 00:02:00,
2013-03-05 19:07:00,29.3,22.7,30.27,NNW,338,0.0,0.0,76,0.00,,SKC,0.00,VWS V13.01,2013-03-06 00:07:00,
2013-03-05 19:12:00,29.3,22.7,30.27,NNW,338,0.0,0.0,76,0.00,,SKC,0.00,VWS V13.01,2013-03-06 00:12:00,
2013-03-05 19:17:00,29.3,23.0,30.26,NNW,338,2.0,2.0,77,0.00,,SKC,0.00,VWS V13.01,2013-03-06 00:17:00,
2013-03-05 19:22:00,29.1,22.5,30.27,NNW,338,1.3,1.3,76,0.00,,SKC,0.00,VWS V13.01,2013-03-06 00:22:00,
2013-03-05 19:27:00,29.1,22.8,30.26,East,91,0.0,0.0,77,0.00,,SKC,0.00,VWS V13.01,2013-03-06 00:27:00,
2013-03-05 19:32:00,28.9,22.6,30.26,East,91,0.0,0.0,77,0.00,,SKC,0.00,VWS V13.01,2013-03-06 00:32:00,
2013-03-05 19:37:00,28.7,22.4,30.26,East,91,0.0,0.0,77,0.00,,SKC,0.00,VWS V13.01,2013-03-06 00:37:00,
2013-03-05 19:42:00,28.5,22.2,30.26,North,1,0.0,0.0,77,0.00,,SKC,0.00,VWS V13.01,2013-03-06 00:42:00,
2013-03-05 19:47:00,28.5,22.2,30.26,North,1,0.0,0.0,77,0.00,,SKC,0.00,VWS V13.01,2013-03-06 00:47:00,
2013-03-05 19:52:00,28.4,22.1,30.26,North,1,0.0,0.0,77,0.00,,SKC,0.00,VWS V13.01,2013-03-06 00:52:00,
2013-03-05 19:57:00,28.2,21.9,30.26,North,1,0.0,0.0,77,0.00,,SKC,0.00,VWS V13.01,2013-03-06 00:57:00,
2013-03-05 20:02:00,28.2,21.9,30.26,NNE,24,0.0,0.0,77,0.00,,SKC,0.00,VWS V13.01,2013-03-06 01:02:00,
2013-03-05 20:07:00,28.2,21.9,30.26,North,1,0.0,0.0,77,0.00,,SKC,0.00,VWS V13.01,2013-03-06 01:07:00,
2013-03-05 20:12:00,28.2,22.2,30.26,NNW,338,0.0,0.0,78,0.00,,SKC,0.00,VWS V13.01,2013-03-06 01:12:00,
2013-03-05 20:17:00,28.0,22.0,30.26,North,1,0.0,0.0,78,0.00,,SKC,0.00,VWS V13.01,2013-03-06 01:17:00,
2013-03-05 20:22:00,28.0,22.0,30.27,North,1,0.0,0.0,78,0.00,,SKC,0.00,VWS V13.01,2013-03-06 01:22:00,
2013-03-05 20:27:00,28.0,22.0,30.26,NNW,338,0.0,0.0,78,0.00,,SKC,0.00,VWS V13.01,2013-03-06 01:27:00,
2013-03-05 20:32:00,27.8,21.9,30.26,NNW,338,0.0,0.0,78,0.00,,SKC,0.00,VWS V13.01,2013-03-06 01:32:00,
2013-03-05 20:37:00,27.6,21.6,30.26,North,1,0.0,0.0,78,0.00,,SKC,0.00,VWS V13.01,2013-03-06 01:37:00,
2013-03-05 20:42:00,27.6,21.6,30.25,NNE,24,0.0,0.0,78,0.00,,SKC,0.00,VWS V13.01,2013-03-06 01:42:00,
2013-03-05 20:47:00,27.6,21.6,30.25,NNE,24,0.0,0.0,78,0.00,,SKC,0.00,VWS V13.01,2013-03-06 01:47:00,
2013-03-05 20:52:00,27.5,21.9,30.25,NNE,24,0.0,0.0,79,0.00,,SKC,0.00,VWS V13.01,2013-03-06 01:52:00,
2013-03-05 20:57:00,27.3,21.7,30.25,NNE,24,0.0,0.0,79,0.00,,SKC,0.00,VWS V13.01,2013-03-06 01:57:00,
2013-03-05 21:02:00,27.3,21.7,30.25,NE,46,0.0,0.0,79,0.00,,SKC,0.00,VWS V13.01,2013-03-06 02:02:00,
2013-03-05 21:07:00,27.5,21.9,30.26,NE,46,0.0,0.0,79,0.00,,SKC,0.00,VWS V13.01,2013-03-06 02:07:00,
2013-03-05 21:12:00,27.3,21.7,30.25,NE,46,0.0,0.0,79,0.00,,SKC,0.00,VWS V13.01,2013-03-06 02:12:00,
2013-03-05 21:17:00,27.3,21.7,30.26,NE,46,0.0,0.0,79,0.00,,SKC,0.00,VWS V13.01,2013-03-06 02:17:00,
2013-03-05 21:22:00,27.3,21.7,30.25,NE,46,0.0,0.0,79,0.00,,SKC,0.00,VWS V13.01,2013-03-06 02:22:00,
2013-03-05 21:27:00,27.1,21.5,30.25,ENE,68,0.0,0.0,79,0.00,,SKC,0.00,VWS V13.01,2013-03-06 02:27:00,
2013-03-05 21:32:00,27.1,21.5,30.25,ENE,68,0.0,0.0,79,0.00,,SKC,0.00,VWS V13.01,2013-03-06 02:32:00,
2013-03-05 21:37:00,27.1,21.5,30.25,ENE,68,0.0,0.0,79,0.00,,SKC,0.00,VWS V13.01,2013-03-06 02:37:00,
2013-03-05 21:42:00,27.1,21.5,30.25,ENE,68,0.0,0.0,79,0.00,,SKC,0.00,VWS V13.01,2013-03-06 02:42:00,
2013-03-05 21:47:00,26.9,21.3,30.25,ENE,68,0.0,0.0,79,0.00,,SKC,0.00,VWS V13.01,2013-03-06 02:47:00,
2013-03-05 21:52:00,26.7,21.4,30.25,ENE,68,0.0,0.0,80,0.00,,SKC,0.00,VWS V13.01,2013-03-06 02:52:00,
2013-03-05 21:57:00,26.7,21.4,30.25,ENE,68,0.0,0.0,80,0.00,,SKC,0.00,VWS V13.01,2013-03-06 02:57:00,
2013-03-05 22:02:00,26.6,21.3,30.25,ENE,68,0.0,0.0,80,0.00,,SKC,0.00,VWS V13.01,2013-03-06 03:02:00,
2013-03-05 22:07:00,26.4,21.1,30.25,ENE,68,0.0,0.0,80,0.00,,SKC,0.00,VWS V13.01,2013-03-06 03:07:00,
2013-03-05 22:12:00,26.4,21.1,30.25,ENE,68,0.0,0.0,80,0.00,,SKC,0.00,VWS V13.01,2013-03-06 03:12:00,
2013-03-05 22:17:00,26.4,21.1,30.25,ENE,68,0.0,0.0,80,0.00,,SKC,0.00,VWS V13.01,2013-03-06 03:17:00,
2013-03-05 22:22:00,26.4,21.1,30.26,ENE,68,0.0,0.0,80,0.00,,SKC,0.00,VWS V13.01,2013-03-06 03:22:00,
2013-03-05 22:27:00,26.4,21.1,30.25,ENE,68,0.0,0.0,80,0.00,,SKC,0.00,VWS V13.01,2013-03-06 03:27:00,
2013-03-05 22:32:00,26.4,21.1,30.25,ENE,68,0.0,0.0,80,0.00,,SKC,0.00,VWS V13.01,2013-03-06 03:32:00,
2013-03-05 22:37:00,26.4,21.1,30.25,ENE,68,0.0,0.0,80,0.00,,SKC,0.00,VWS V13.01,2013-03-06 03:37:00,
2013-03-05 22:42:00,26.2,20.9,30.25,ENE,68,0.0,0.0,80,0.00,,SKC,0.00,VWS V13.01,2013-03-06 03:42:00,
2013-03-05 22:47:00,26.0,20.7,30.25,ENE,68,0.0,0.0,80,0.00,,SKC,0.00,VWS V13.01,2013-03-06 03:47:00,
2013-03-05 22:52:00,25.8,20.5,30.25,ENE,68,0.0,0.0,80,0.00,,SKC,0.00,VWS V13.01,2013-03-06 03:52:00,
2013-03-05 22:57:00,25.7,20.4,30.25,ENE,68,0.0,0.0,80,0.00,,SKC,0.00,VWS V13.01,2013-03-06 03:57:00,
2013-03-05 23:02:00,25.7,20.4,30.26,ENE,68,0.0,0.0,80,0.00,,SKC,0.00,VWS V13.01,2013-03-06 04:02:00,
2013-03-05 23:07:00,25.7,20.4,30.26,ENE,68,0.0,0.0,80,0.00,,SKC,0.00,VWS V13.01,2013-03-06 04:07:00,
2013-03-05 23:12:00,25.5,20.2,30.26,ENE,68,0.0,0.0,80,0.00,,SKC,0.00,VWS V13.01,2013-03-06 04:12:00,
2013-03-05 23:17:00,25.5,20.2,30.25,ENE,68,0.0,0.0,80,0.00,,SKC,0.00,VWS V13.01,2013-03-06 04:17:00,
2013-03-05 23:22:00,25.5,20.5,30.25,ENE,68,0.0,0.0,81,0.00,,SKC,0.00,VWS V13.01,2013-03-06 04:22:00,
2013-03-05 23:27:00,25.5,20.5,30.25,ENE,68,0.0,0.0,81,0.00,,SKC,0.00,VWS V13.01,2013-03-06 04:27:00,
2013-03-05 23:32:00,25.5,20.5,30.25,ENE,68,0.0,0.0,81,0.00,,SKC,0.00,VWS V13.01,2013-03-06 04:32:00,
2013-03-05 23:37:00,25.5,20.5,30.25,ENE,68,0.0,0.0,81,0.00,,SKC,0.00,VWS V13.01,2013-03-06 04:37:00,
2013-03-05 23:42:00,25.1,20.1,30.26,ENE,68,0.0,0.0,81,0.00,,SKC,0.00,VWS V13.01,2013-03-06 04:42:00,
2013-03-05 23:47:00,24.9,19.9,30.25,ENE,68,0.0,0.0,81,0.00,,SKC,0.00,VWS V13.01,2013-03-06 04:47:00,
2013-03-05 23:52:00,24.9,19.9,30.25,ENE,68,0.0,0.0,81,0.00,,SKC,0.00,VWS V13.01,2013-03-06 04:52:00,
2013-03-05 23:57:00,24.9,19.9,30.25,ENE,68,0.0,0.0,81,0.00,,SKC,0.00,VWS V13.01,2013-03-06 04:57:00,